Torna al catalogo

SL-14 DEB

AttivoPO
NORAD 26005·DEBRIS·🇷🇺 Russia

Lanciato Sep 28, 1991 da Plesetsk Cosmodrome

Loading…

Prossimi Passaggi (prossime 24 ore)

TLE

AggiornatoSource: Space-Track

Epoca: Sep 14, 2026, 03:59 UTC

1 26005U 91068Q   26257.16663686  .00000184  00000-0  97252-3 0  9992
2 26005  82.6073 333.9085 0055950 297.7667  88.0246 12.61879064239590

Traccia SL-14 DEB in tempo reale con AllMySat

Download on the App Store